Menominee, MI

6:13 AM CDT on September 25, 2016 (GMT -0500)
Menominee-Marinette Twin County

Weather History for KMNM - November, 2013

Change the Weather History Date:

Thursday, November 28, 2013

  Actual Average Record
Temperature  
Mean Temperature 22 °F -  
Max Temperature 26 °F 37 °F 53 °F (1990)
Min Temperature 17 °F 21 °F -5 °F (1976)
Degree Days  
Heating Degree Days 44    
Moisture  
Dew Point 18 °F    
Average Humidity 84    
Maximum Humidity 93    
Minimum Humidity 64    
Precipitation  
Precipitation 0.00 in - - ()
Sea Level Pressure  
Sea Level Pressure 30.24 in    
Wind  
Wind Speed 2 mph (NNW)    
Max Wind Speed 9 mph    
Max Gust Speed -    
Visibility 8 miles    
Events      
Averages and records for this station are not official NWS values.
T = Trace of Precipitation, MM = Missing Value Source: NWS Daily Summary

Daily Weather History Graph

Daily Weather History Graph

Search for Another Location

Airport or City:

Trip Planner

Search our weather history database for the weather conditions in past years. The results will help you decide how hot, cold, wet, or windy it might be!

Date:

Astronomy

Nov. 28, 2013 Rise Set
Actual Time 7:05 AM CST 4:11 PM CST
Civil Twilight 6:32 AM CST 4:44 PM CST
Nautical Twilight 5:56 AM CST 5:20 PM CST
Astronomical Twilight 5:20 AM CST 5:56 PM CST
Moon 1:56 AM CST (11/28) 1:31 PM CST (11/28)
Length of Visible Light 10h 11m
Length of Day
9h 05m
Waning Crescent, 22% of the Moon is Illuminated
Nov 28
Waning Crescent
Dec 2
New
Dec 9
First Quarter
Dec 17
Full
Dec 25
Last Quarter

Hourly Weather History & Observations

Time (CST) Temp. Windchill Dew Point Humidity Pressure Visibility Wind Dir Wind Speed Gust Speed Precip Events Conditions
12:15 AM 21.2 °F - 17.6 °F 86% 30.17 in 10.0 mi Calm Calm - N/A   Overcast
12:35 AM 21.2 °F - 17.6 °F 86% 30.17 in 10.0 mi Calm Calm - N/A   Overcast
12:55 AM 21.2 °F - 17.6 °F 86% 30.17 in 10.0 mi Calm Calm - N/A   Overcast
1:15 AM 21.2 °F - 15.8 °F 80% 30.17 in 10.0 mi Calm Calm - N/A   Overcast
1:35 AM 21.2 °F - 17.6 °F 86% 30.17 in 7.0 mi Calm Calm - N/A   Overcast
1:55 AM 21.2 °F 16.4 °F 17.6 °F 86% 30.17 in 9.0 mi WSW 3.5 mph - N/A   Overcast
2:15 AM 21.2 °F - 17.6 °F 86% 30.17 in 9.0 mi Calm Calm - N/A   Overcast
2:35 AM 21.2 °F - 17.6 °F 86% 30.16 in 7.0 mi Calm Calm - N/A   Overcast
2:55 AM 19.4 °F - 17.6 °F 93% 30.16 in 9.0 mi Calm Calm - N/A   Overcast
3:15 AM 21.2 °F - 19.4 °F 93% 30.16 in 10.0 mi Calm Calm - N/A   Overcast
3:35 AM 21.2 °F - 19.4 °F 93% 30.16 in 10.0 mi Calm Calm - N/A   Overcast
3:55 AM 21.2 °F - 17.6 °F 86% 30.15 in 10.0 mi Calm Calm - N/A   Overcast
4:15 AM 21.2 °F - 17.6 °F 86% 30.15 in 10.0 mi Calm Calm - N/A   Overcast
4:35 AM 21.2 °F - 19.4 °F 93% 30.15 in 10.0 mi Calm Calm - N/A   Overcast
4:55 AM 21.2 °F - 17.6 °F 86% 30.16 in 10.0 mi Calm Calm - N/A   Overcast
5:15 AM 21.2 °F - 19.4 °F 93% 30.16 in 2.0 mi Calm Calm - N/A   Overcast
5:35 AM 21.2 °F - 19.4 °F 93% 30.17 in 2.5 mi Calm Calm - N/A   Overcast
5:55 AM 21.2 °F - 19.4 °F 93% 30.17 in 3.0 mi Calm Calm - N/A   Overcast
6:15 AM 21.2 °F - 19.4 °F 93% 30.17 in 4.0 mi Calm Calm - N/A   Overcast
6:35 AM 21.2 °F - 19.4 °F 93% 30.18 in 2.5 mi Calm Calm - N/A   Overcast
6:55 AM 21.2 °F - 19.4 °F 93% 30.17 in 2.5 mi Calm Calm - N/A   Overcast
7:15 AM 21.2 °F - 19.4 °F 93% 30.17 in 2.5 mi Calm Calm - N/A   Overcast
7:35 AM 21.2 °F - 17.6 °F 86% 30.18 in 3.0 mi Calm Calm - N/A   Overcast
7:55 AM 21.2 °F - 17.6 °F 86% 30.18 in 4.0 mi Calm Calm - N/A   Overcast
8:15 AM 21.2 °F - 19.4 °F 93% 30.18 in 6.0 mi Calm Calm - N/A   Overcast
8:35 AM 21.2 °F - 17.6 °F 86% 30.18 in 7.0 mi Calm Calm - N/A   Overcast
8:55 AM 21.2 °F - 19.4 °F 93% 30.18 in 3.0 mi Calm Calm - N/A   Overcast
9:15 AM 21.2 °F - 19.4 °F 93% 30.19 in 1.5 mi Calm Calm - N/A   Overcast
9:35 AM 23.0 °F - 21.2 °F 93% 30.19 in 1.2 mi Calm Calm - N/A   Overcast
9:55 AM 23.0 °F 18.4 °F 19.4 °F 86% 30.19 in 2.0 mi NNW 3.5 mph - N/A   Overcast
10:15 AM 23.0 °F 18.4 °F 19.4 °F 86% 30.19 in 1.5 mi NW 3.5 mph - N/A   Overcast
10:35 AM 23.0 °F 15.8 °F 19.4 °F 86% 30.19 in 3.0 mi NW 5.8 mph - N/A   Overcast
10:55 AM 23.0 °F 18.4 °F 19.4 °F 86% 30.19 in 4.0 mi NW 3.5 mph - N/A   Overcast
11:15 AM 23.0 °F 17.0 °F 17.6 °F 80% 30.18 in 5.0 mi NW 4.6 mph - N/A   Overcast
11:35 AM 24.8 °F 16.9 °F 19.4 °F 80% 30.18 in 5.0 mi NNW 6.9 mph - N/A   Overcast
11:55 AM 24.8 °F 20.5 °F 19.4 °F 80% 30.18 in 5.0 mi NNW 3.5 mph - N/A   Overcast
12:15 PM 24.8 °F 19.1 °F 17.6 °F 74% 30.19 in 4.0 mi NNW 4.6 mph - N/A   Mostly Cloudy
12:35 PM 24.8 °F 16.1 °F 19.4 °F 80% 30.19 in 4.0 mi NNW 8.1 mph - N/A   Overcast
12:55 PM 24.8 °F 17.9 °F 19.4 °F 80% 30.19 in 2.5 mi North 5.8 mph - N/A   Overcast
1:15 PM 24.8 °F 16.9 °F 19.4 °F 80% 30.19 in 8.0 mi North 6.9 mph - N/A   Overcast
1:35 PM 24.8 °F 16.1 °F 17.6 °F 74% 30.20 in 10.0 mi North 8.1 mph - N/A   Mostly Cloudy
1:55 PM 24.8 °F 17.9 °F 17.6 °F 74% 30.20 in 10.0 mi NNW 5.8 mph - N/A   Mostly Cloudy
2:15 PM 24.8 °F 15.3 °F 17.6 °F 74% 30.21 in 10.0 mi North 9.2 mph - N/A   Mostly Cloudy
2:35 PM 26.6 °F 18.2 °F 17.6 °F 69% 30.22 in 10.0 mi NNW 8.1 mph - N/A   Mostly Cloudy
2:55 PM 26.6 °F 18.2 °F 15.8 °F 64% 30.23 in 10.0 mi NNW 8.1 mph - N/A   Scattered Clouds
3:15 PM 26.6 °F 18.2 °F 15.8 °F 64% 30.25 in 10.0 mi North 8.1 mph - N/A   Mostly Cloudy
3:35 PM 24.8 °F 17.9 °F 15.8 °F 69% 30.26 in 10.0 mi North 5.8 mph - N/A   Overcast
3:55 PM 24.8 °F 19.1 °F 17.6 °F 74% 30.27 in 10.0 mi North 4.6 mph - N/A   Mostly Cloudy
4:15 PM 24.8 °F 20.5 °F 17.6 °F 74% 30.28 in 10.0 mi NNW 3.5 mph - N/A   Overcast
4:35 PM 23.0 °F 18.4 °F 15.8 °F 74% 30.29 in 10.0 mi NNW 3.5 mph - N/A   Mostly Cloudy
4:55 PM 23.0 °F 18.4 °F 15.8 °F 74% 30.30 in 10.0 mi NNW 3.5 mph - N/A   Partly Cloudy
5:15 PM 21.2 °F 16.4 °F 15.8 °F 80% 30.31 in 10.0 mi NNW 3.5 mph - N/A   Clear
5:35 PM 21.2 °F 16.4 °F 17.6 °F 86% 30.32 in 10.0 mi NW 3.5 mph - N/A   Clear
5:55 PM 21.2 °F 16.4 °F 15.8 °F 80% 30.33 in 6.0 mi NNW 3.5 mph - N/A   Clear
6:15 PM 19.4 °F - 15.8 °F 86% 30.33 in 9.0 mi Calm Calm - N/A   Clear
6:35 PM 17.6 °F - 12.2 °F 79% 30.34 in 10.0 mi Calm Calm - N/A   Clear
6:55 PM 17.6 °F - 14.0 °F 86% 30.35 in 10.0 mi Calm Calm - N/A   Clear
7:15 PM 17.6 °F 12.3 °F 14.0 °F 86% 30.36 in 10.0 mi NW 3.5 mph - N/A   Partly Cloudy
7:35 PM 19.4 °F - 14.0 °F 80% 30.36 in 10.0 mi Calm Calm - N/A   Clear
7:55 PM 19.4 °F 12.8 °F 15.8 °F 86% 30.36 in 10.0 mi NW 4.6 mph - N/A   Clear
8:15 PM 19.4 °F 11.5 °F 15.8 °F 86% 30.37 in 10.0 mi NW 5.8 mph - N/A   Mostly Cloudy
8:35 PM 19.4 °F 12.8 °F 17.6 °F 93% 30.37 in 10.0 mi NNW 4.6 mph - N/A   Overcast
8:55 PM 19.4 °F 14.3 °F 17.6 °F 93% 30.38 in 10.0 mi NNW 3.5 mph - N/A   Overcast
9:15 PM 19.4 °F 11.5 °F 15.8 °F 86% 30.39 in 10.0 mi NNW 5.8 mph - N/A   Overcast
9:35 PM 19.4 °F 9.5 °F 15.8 °F 86% 30.40 in 10.0 mi NNW 8.1 mph - N/A   Overcast
9:55 PM 19.4 °F 10.4 °F 15.8 °F 86% 30.41 in 10.0 mi NNW 6.9 mph - N/A   Overcast
10:15 PM 19.4 °F 10.4 °F 15.8 °F 86% 30.41 in 10.0 mi NNW 6.9 mph - N/A   Overcast
10:35 PM 19.4 °F 10.4 °F 17.6 °F 93% 30.42 in 10.0 mi NNW 6.9 mph - N/A   Overcast
10:55 PM 19.4 °F 11.5 °F 15.8 °F 86% 30.43 in 10.0 mi NNW 5.8 mph - N/A   Overcast
11:15 PM 19.4 °F 12.8 °F 17.6 °F 93% 30.43 in 10.0 mi NNW 4.6 mph - N/A   Overcast
11:35 PM 19.4 °F 12.8 °F 15.8 °F 86% 30.44 in 10.0 mi NW 4.6 mph - N/A   Overcast
11:55 PM 19.4 °F 12.8 °F 15.8 °F 86% 30.44 in 10.0 mi NW 4.6 mph - N/A   Overcast